EW8300 Weather Reports


time (UTC)temp
C
wind
direction
speed
KPH
gust
KPH
rain 1hr
cm
rain 24hr
cm
rain mn
cm
humidity
%
barometer
mb
20260902211653 36 182 0.0 1.6 0.00 0.00 0.00 49 1013.4
20260902210053 36 135 0.0 4.8 0.00 0.00 0.00 49 1013.5
20260902204609 36 62 0.0 6.4 0.00 0.00 0.00 53 1013.5
20260902203055 35 253 0.0 6.4 0.00 0.00 0.00 51 1013.7
20260902201648 34 97 0.0 6.4 0.00 0.00 0.00 54 1013.8
20260902200050 35 156 0.0 1.6 0.00 0.00 0.00 51 1013.9
20260902194556 35 143 0.0 1.6 0.00 0.00 0.00 51 1014.0
20260902193047 35 247 0.0 1.6 0.00 0.00 0.00 50 1014.2
20260902191645 35 70 0.0 6.4 0.00 0.00 0.00 50 1014.4
20260902190044 35 201 0.0 4.8 0.00 0.00 0.00 50 1014.6
20260902184544 34 179 0.0 0.0 0.00 0.00 0.00 51 1014.6
20260902183102 35 278 0.0 6.4 0.00 0.00 0.00 51 1014.7
20260902181503 35 95 0.0 3.2 0.00 0.00 0.00 53 1014.9
20260902180004 35 133 0.0 0.0 0.00 0.00 0.00 52 1015.0
20260902174502 35 185 0.0 6.4 0.00 0.00 0.00 52 1015.0
20260902173102 35 145 0.0 0.0 0.00 0.00 0.00 52 1015.3
20260902171658 35 191 0.0 0.0 0.00 0.00 0.00 52 1015.4
20260902170054 34 252 0.0 8.0 0.00 0.00 0.00 55 1015.4
20260902164603 33 220 0.0 4.8 0.00 0.00 0.00 55 1015.5
20260902163049 33 231 0.0 11.3 0.00 0.00 0.00 56 1015.6
20260902161647 33 193 0.0 0.0 0.00 0.00 0.00 57 1015.8
20260902160105 34 170 0.0 0.0 0.00 0.00 0.00 58 1015.8
20260902154557 33 110 0.0 0.0 0.00 0.00 0.00 60 1015.8
20260902153048 33 156 0.0 0.0 0.00 0.00 0.00 61 1015.9
20260902151644 32 201 0.0 0.0 0.00 0.00 0.00 63 1016.0
20260902150056 32 255 0.0 0.0 0.00 0.00 0.00 67 1016.0
20260902144602 31 27 0.0 0.0 0.00 0.00 0.00 69 1016.0
20260902143047 31 40 0.0 0.0 0.00 0.00 0.00 73 1016.0
20260902141643 30 40 0.0 0.0 0.00 0.00 0.00 77 1016.0
20260902140053 28 108 0.0 0.0 0.00 0.00 0.00 82 1016.0
20260902134550 27 110 0.0 0.0 0.00 0.00 0.00 84 1016.2
20260902133045 26 110 0.0 0.0 0.00 0.00 0.00 85 1016.3
20260902131513 25 110 0.0 0.0 0.00 0.00 0.00 86 1016.3
20260902130024 23 103 0.0 0.0 0.00 0.00 0.00 90 1016.3
20260902124505 22 103 0.0 0.0 0.00 0.00 0.00 93 1016.3
20260902123100 21 103 0.0 0.0 0.00 0.00 0.00 93 1016.3
20260902121506 21 103 0.0 0.0 0.00 0.00 0.00 92 1016.2
20260902120004 21 103 0.0 0.0 0.00 0.00 0.00 91 1016.0
20260902114619 21 103 0.0 0.0 0.00 0.00 0.00 91 1015.7
20260902113058 20 111 0.0 0.0 0.00 0.00 0.00 92 1015.5
20260902111656 21 112 0.0 0.0 0.00 0.00 0.00 91 1015.6
20260902110105 21 112 0.0 0.0 0.00 0.00 0.00 91 1015.5
20260902104601 21 111 0.0 0.0 0.00 0.00 0.00 90 1015.4
20260902103103 21 111 0.0 0.0 0.00 0.00 0.00 91 1015.4
20260902101655 21 112 0.0 0.0 0.00 0.00 0.00 91 1015.4
20260902100054 21 92 0.0 0.0 0.00 0.00 0.00 91 1015.4
20260902094553 21 93 0.0 0.0 0.00 0.00 0.00 91 1015.3
20260902093051 21 95 0.0 0.0 0.00 0.00 0.00 91 1015.3
20260902091651 21 359 0.0 0.0 0.00 0.00 0.00 90 1015.2
20260902090052 21 359 0.0 0.0 0.00 0.00 0.00 92 1015.1
20260902084551 21 359 0.0 0.0 0.00 0.00 0.00 91 1014.9
20260902083049 21 359 0.0 0.0 0.00 0.00 0.00 91 1014.7
20260902081647 21 359 0.0 0.0 0.00 0.00 0.00 90 1014.7
20260902080053 22 359 0.0 0.0 0.00 0.00 0.00 90 1014.6
20260902074553 21 359 0.0 0.0 0.00 0.00 0.00 91 1014.6
20260902073051 22 359 0.0 0.0 0.00 0.00 0.00 90 1014.5
20260902071645 22 359 0.0 0.0 0.00 0.00 0.00 90 1014.6
20260902070044 22 359 0.0 0.0 0.00 0.00 0.00 90 1014.5
20260902064546 22 359 0.0 0.0 0.00 0.00 0.00 91 1014.6
20260902063043 22 107 0.0 0.0 0.00 0.00 0.00 90 1014.7
20260902060042 22 55 0.0 0.0 0.00 0.00 0.00 90 1014.6
20260902054541 23 359 0.0 0.0 0.00 0.00 0.00 89 1014.7
20260902053040 23 359 0.0 0.0 0.00 0.00 0.00 90 1014.7
20260902051638 23 359 0.0 0.0 0.00 0.00 0.00 89 1014.6
20260902050058 23 359 0.0 0.0 0.00 0.00 0.00 89 1014.7
20260902044557 23 359 0.0 0.0 0.00 0.00 0.00 90 1014.7
20260902043057 23 30 0.0 0.0 0.00 0.00 0.00 90 1014.6
20260902041508 23 359 0.0 0.0 0.00 0.00 0.00 91 1014.6
20260902040006 23 359 0.0 0.0 0.00 0.00 0.00 90 1014.7
20260902034501 23 359 0.0 0.0 0.00 0.00 0.00 90 1014.6
20260902033059 23 359 0.0 0.0 0.00 0.00 0.00 90 1014.6
20260902031655 24 359 0.0 0.0 0.00 0.00 0.00 89 1014.6
20260902030055 25 59 0.0 0.0 0.00 0.00 0.00 89 1014.5
20260902024553 25 55 0.0 0.0 0.00 0.00 0.00 87 1014.6
20260902023052 25 55 0.0 0.0 0.00 0.00 0.00 88 1014.6
20260902021650 25 93 0.0 0.0 0.00 0.00 0.00 86 1014.7
20260902020100 25 95 0.0 0.0 0.00 0.00 0.00 88 1014.6
20260902014556 26 359 0.0 0.0 0.00 0.00 0.00 86 1014.5
20260902013052 26 122 0.0 0.0 0.00 0.00 0.00 86 1014.4
20260902011649 26 359 0.0 0.0 0.00 0.00 0.00 84 1014.2
20260902010050 27 359 0.0 0.0 0.00 0.00 0.00 82 1014.0
20260902004548 27 79 0.0 0.0 0.00 0.00 0.00 81 1013.9
20260902003053 28 55 0.0 0.0 0.00 0.00 0.00 80 1013.9
20260902001646 28 54 0.0 1.6 0.00 0.00 0.00 78 1013.9
20260902000056 30 122 0.0 0.0 0.00 0.00 0.00 75 1014.0
20260901234543 31 127 0.0 0.0 0.00 0.00 0.00 71 1013.9
20260901233042 32 127 0.0 0.0 0.00 0.00 0.00 67 1014.0
20260901231643 33 52 0.0 0.0 0.00 0.00 0.00 63 1014.0
20260901230042 33 108 0.0 0.0 0.00 0.00 0.00 61 1014.1
20260901224542 34 89 0.0 0.0 0.00 0.00 0.00 56 1014.0
20260901223041 35 23 0.0 0.0 0.00 0.00 0.00 49 1013.9
20260901221640 35 227 0.0 0.0 0.00 0.00 0.00 49 1014.0
20260901220127 35 68 0.0 0.0 0.00 0.00 0.00 49 1013.9
20260901214559 36 58 0.0 3.2 0.00 0.00 0.00 49 1013.9
20260901213116 35 276 0.0 6.4 0.00 0.00 0.00 46 1013.9